This is the latest recevied weather packets stored in our database for station/object KG5WBN. If no packets are shown the sender has not sent any weather packets the latest 10 day(s).
| Time | Temp. | Humidity | Pressure | Rain* | Wind** | Luminosity | Snow |
|---|---|---|---|---|---|---|---|
| 1778006089 | 28.89° C | 37% | 1012.5 hPa | 0 mm | - | 339 W/m² | - |
| 1778005786 | 28.89° C | 36% | 1012.5 hPa | 0 mm | - | 403 W/m² | - |
| 1778005482 | 28.89° C | 36% | 1012.5 hPa | 0 mm | - | 382 W/m² | - |
| 1778005178 | 28.89° C | 36% | 1012.5 hPa | 0 mm | - | 367 W/m² | - |
| 1778004876 | 28.89° C | 37% | 1012.5 hPa | 0 mm | - | 394 W/m² | - |
| 1778004573 | 28.33° C | 37% | 1012.5 hPa | 0 mm | - | 350 W/m² | - |
| 1778004269 | 28.89° C | 37% | 1012.5 hPa | 0 mm | - | 347 W/m² | - |
| 1778003966 | 29.44° C | 37% | 1012.9 hPa | 0 mm | - | 371 W/m² | - |
| 1778003662 | 28.89° C | 36% | 1012.5 hPa | 0 mm | - | 333 W/m² | - |
| 1778003359 | 28.89° C | 37% | 1012.5 hPa | 0 mm | - | 390 W/m² | - |
| 1778003057 | 28.89° C | 38% | 1012.5 hPa | 0 mm | - | 377 W/m² | - |
| 1778002752 | 28.89° C | 38% | 1012.9 hPa | 0 mm | - | 215 W/m² | - |
| 1778002449 | 28.33° C | 38% | 1012.9 hPa | 0 mm | - | 292 W/m² | - |
| 1778002146 | 28.33° C | 38% | 1012.9 hPa | 0 mm | - | 343 W/m² | - |
| 1778001844 | 27.78° C | 38% | 1012.9 hPa | 0 mm | - | 356 W/m² | - |
| 1778001543 | 28.33° C | 39% | 1012.9 hPa | 0 mm | - | 339 W/m² | - |
| 1778001240 | 27.78° C | 38% | 1012.9 hPa | 0 mm | - | 337 W/m² | - |
| 1778000936 | 28.33° C | 38% | 1012.9 hPa | 0 mm | - | 264 W/m² | - |
| 1778000634 | 28.89° C | 36% | 1012.5 hPa | 0 mm | - | 362 W/m² | - |
| 1778000329 | 28.33° C | 37% | 1012.5 hPa | 0 mm | - | 355 W/m² | - |
| 1778000025 | 28.33° C | 37% | 1012.5 hPa | 0 mm | - | 310 W/m² | - |
| 1777999721 | 28.33° C | 38% | 1012.9 hPa | 0 mm | - | 198 W/m² | - |
| 1777999418 | 28.33° C | 38% | 1012.9 hPa | 0 mm | - | 342 W/m² | - |
| 1777999115 | 27.78° C | 40% | 1012.5 hPa | 0 mm | - | 314 W/m² | - |
| 1777998814 | 27.78° C | 38% | 1012.5 hPa | 0 mm | - | 243 W/m² | - |
* Rain latest hour (hover to see other rain measurements)
** Current wind speed in m/s (hover to see current wind gust speed)